FW8535 Weather Reports


time (UTC)temp
F
wind
direction
speed
knots
gust
knots
rain 1hr
in
rain 24hr
in
rain mn
in
humidity
%
barometer
mb
20260904042019 67 5 1.7 3.5 0.00 0.00 0.00 59 1007.0
20260904041517 66 5 1.7 2.6 0.00 0.00 0.00 60 1007.0
20260904041017 66 360 0.0 1.7 0.00 0.00 0.00 60 1007.0
20260904040521 66 360 0.0 2.6 0.00 0.00 0.00 60 1007.0
20260904040016 66 360 0.0 2.6 0.00 0.00 0.00 60 1006.6
20260904035517 66 360 0.0 2.6 0.00 0.00 0.00 61 1006.5
20260904035016 66 360 0.9 3.5 0.00 0.00 0.00 62 1006.5
20260904034538 66 360 2.6 3.5 0.00 0.00 0.00 64 1006.4
20260904034019 66 360 0.9 2.6 0.00 0.00 0.00 64 1006.5
20260904033516 65 360 0.9 2.6 0.00 0.00 0.00 65 1006.6
20260904033015 65 360 1.7 2.6 0.00 0.00 0.00 63 1006.5
20260904032016 67 360 2.6 4.3 0.00 0.00 0.00 60 1006.7
20260904031517 67 334 1.7 2.6 0.00 0.00 0.00 60 1006.9
20260904031016 67 334 0.0 1.7 0.00 0.00 0.00 55 1006.9
20260904030516 67 334 0.0 1.7 0.00 0.00 0.00 55 1006.7
20260904030016 67 334 0.9 1.7 0.00 0.00 0.00 54 1006.7
20260904025516 68 334 0.0 1.7 0.00 0.00 0.00 53 1006.7
20260904025016 68 334 0.0 1.7 0.00 0.00 0.00 51 1006.8
20260904024516 69 334 0.0 1.7 0.00 0.00 0.00 50 1006.7
20260904024014 69 334 0.9 2.6 0.00 0.00 0.00 49 1006.8
20260904023513 70 334 0.0 2.6 0.00 0.00 0.00 49 1006.5
20260904023013 70 333 0.0 0.9 0.00 0.00 0.00 49 1006.4
20260904022017 71 333 0.0 0.0 0.00 0.00 0.00 47 1006.4
20260904021512 72 333 0.0 1.7 0.00 0.00 0.00 46 1006.4
20260904021012 73 336 0.0 4.3 0.00 0.00 0.00 45 1006.3
20260904020512 73 336 0.9 4.3 0.00 0.00 0.00 44 1006.1
20260904020012 74 287 0.0 2.6 0.00 0.00 0.00 44 1006.1
20260904015515 74 283 0.0 2.6 0.00 0.00 0.00 44 1006.0
20260904015012 75 265 0.0 0.0 0.00 0.00 0.00 43 1006.1
20260904014511 76 265 0.0 0.0 0.00 0.00 0.00 42 1006.0
20260904014012 76 265 0.0 0.0 0.00 0.00 0.00 42 1005.9
20260904013510 76 265 0.0 0.9 0.00 0.00 0.00 41 1005.8
20260904013011 77 265 0.0 2.6 0.00 0.00 0.00 41 1005.8
20260904012012 79 265 1.7 3.5 0.00 0.00 0.00 38 1005.6
20260904011537 80 263 0.9 3.5 0.00 0.00 0.00 37 1005.8
20260904011012 81 263 0.9 2.6 0.00 0.00 0.00 36 1005.7
20260904010512 82 259 0.9 3.5 0.00 0.00 0.00 35 1005.6
20260904010012 83 259 0.9 3.5 0.00 0.00 0.00 32 1005.6
20260904005517 83 247 0.9 5.2 0.00 0.00 0.00 28 1005.6
20260904005011 84 246 1.7 6.1 0.00 0.00 0.00 29 1005.2
20260904004511 84 246 2.6 9.6 0.00 0.00 0.00 25 1005.4
20260904004014 84 242 5.2 12.2 0.00 0.00 0.00 25 1005.3
20260904003521 84 231 7.8 13.9 0.00 0.00 0.00 24 1005.3
20260904003013 84 234 7.0 13.9 0.00 0.00 0.00 24 1005.2
20260904002013 85 227 8.7 13.0 0.00 0.00 0.00 25 1005.2
20260904001512 85 229 7.0 14.8 0.00 0.00 0.00 25 1005.3
20260904001012 85 257 9.6 14.8 0.00 0.00 0.00 24 1005.2
20260904000514 86 239 6.1 13.9 0.00 0.00 0.00 23 1005.1
20260904000020 86 236 7.8 13.9 0.00 0.00 0.00 22 1004.9
20260903235514 86 241 7.8 14.8 0.00 0.00 0.00 22 1004.9
20260903235011 87 246 8.7 14.8 0.00 0.00 0.00 21 1004.8
20260903234514 87 251 7.8 13.0 0.00 0.00 0.00 22 1004.7
20260903234010 87 265 6.1 12.2 0.00 0.00 0.00 22 1004.6
20260903233509 87 300 5.2 12.2 0.00 0.00 0.00 23 1004.5
20260903233018 88 223 4.3 8.7 0.00 0.00 0.00 23 1004.5
20260903232009 88 273 7.0 13.0 0.00 0.00 0.00 23 1004.5
20260903231508 88 249 6.1 13.0 0.00 0.00 0.00 22 1004.5
20260903231008 88 241 6.1 13.0 0.00 0.00 0.00 22 1004.4
20260903230510 88 232 7.0 10.4 0.00 0.00 0.00 24 1004.2
20260903230012 88 233 5.2 8.7 0.00 0.00 0.00 25 1004.1
20260903225508 88 279 4.3 8.7 0.00 0.00 0.00 27 1004.1
20260903225006 88 348 1.7 12.2 0.00 0.00 0.00 27 1004.0
20260903224505 88 275 5.2 10.4 0.00 0.00 0.00 27 1003.9
20260903224004 88 198 6.1 9.6 0.00 0.00 0.00 28 1003.9
20260903223507 86 213 3.5 6.1 0.00 0.00 0.00 28 1003.9
20260903223003 85 232 2.6 6.1 0.00 0.00 0.00 30 1004.0
20260903222005 85 315 0.9 2.6 0.00 0.00 0.00 30 1004.0
20260903221505 85 15 0.0 2.6 0.00 0.00 0.00 30 1003.9
20260903221006 85 12 0.0 2.6 0.00 0.00 0.00 31 1003.8
20260903220505 86 9 0.9 2.6 0.00 0.00 0.00 30 1003.8
20260903220008 86 9 0.9 2.6 0.00 0.00 0.00 30 1003.8
20260903215505 87 51 0.9 2.6 0.00 0.00 0.00 30 1003.8
20260903215006 87 51 0.0 4.3 0.00 0.00 0.00 29 1003.8
20260903214507 87 47 1.7 6.1 0.00 0.00 0.00 29 1003.7
20260903214005 86 293 1.7 6.1 0.00 0.00 0.00 30 1003.8
20260903213503 86 29 2.6 4.3 0.00 0.00 0.00 31 1003.8
20260903213006 86 259 1.7 9.6 0.00 0.00 0.00 31 1003.7
20260903212004 86 290 2.6 7.8 0.00 0.00 0.00 31 1003.9
20260903211507 86 355 3.5 7.8 0.00 0.00 0.00 32 1003.8
20260903211003 85 306 2.6 7.0 0.00 0.00 0.00 32 1003.6
20260903210503 85 305 2.6 7.0 0.00 0.00 0.00 31 1003.7
20260903210003 86 278 2.6 9.6 0.00 0.00 0.00 30 1003.7
20260903205502 87 323 3.5 9.6 0.00 0.00 0.00 30 1003.6
20260903205003 86 19 3.5 7.0 0.00 0.00 0.00 30 1003.7
20260903204502 87 281 2.6 7.8 0.00 0.00 0.00 29 1003.5
20260903204004 87 294 3.5 7.8 0.00 0.00 0.00 31 1003.8
20260903203600 86 355 1.7 7.0 0.00 0.00 0.00 33 1003.6
20260903203132 86 11 3.5 8.7 0.00 0.00 0.00 33 1003.6
20260903202056 85 327 1.7 4.3 0.00 0.00 0.00 32 1003.9
20260903201556 84 309 0.0 3.5 0.00 0.00 0.00 32 1003.9
20260903201055 85 309 0.9 3.5 0.00 0.00 0.00 31 1003.8
20260903200555 85 323 0.9 7.0 0.00 0.00 0.00 31 1003.6
20260903200059 85 313 2.6 7.0 0.00 0.00 0.00 31 1003.9
20260903195554 85 291 2.6 7.8 0.00 0.00 0.00 34 1003.7
20260903195052 85 268 4.3 8.7 0.00 0.00 0.00 32 1003.8
20260903194556 84 248 4.3 8.7 0.00 0.00 0.00 35 1003.8
20260903194049 83 286 1.7 4.3 0.00 0.00 0.00 36 1003.9
20260903193549 83 330 1.7 4.3 0.00 0.00 0.00 41 1003.9
20260903193047 82 211 0.9 7.0 0.00 0.00 0.00 44 1003.7
20260903192049 81 183 1.7 7.0 0.00 0.00 0.00 45 1003.8
20260903191553 81 130 2.6 7.0 0.00 0.00 0.00 48 1003.7
20260903191148 81 127 1.7 7.0 0.00 0.00 0.00 48 1003.6
20260903190550 81 104 0.9 6.1 0.00 0.00 0.00 51 1003.8
20260903190045 80 20 0.0 4.3 0.00 0.00 0.00 52 1003.8
20260903185547 80 5 0.9 4.3 0.00 0.00 0.00 53 1003.8
20260903185043 80 51 2.6 7.0 0.00 0.00 0.00 54 1003.8
20260903184542 79 152 2.6 7.0 0.00 0.00 0.00 55 1003.7
20260903184041 78 39 1.7 4.3 0.00 0.00 0.00 56 1003.6
20260903183539 78 29 0.9 4.3 0.00 0.00 0.00 56 1003.7
20260903183043 77 25 0.9 7.8 0.00 0.00 0.00 58 1003.7
20260903182038 78 196 1.7 3.5 0.00 0.00 0.00 59 1004.2
20260903181535 77 144 0.0 2.6 0.00 0.00 0.00 60 1004.3
20260903181032 75 123 0.0 3.5 0.00 0.00 0.00 61 1004.1
20260903180533 75 117 0.9 5.2 0.00 0.00 0.00 62 1004.1
20260903180029 74 49 1.7 5.2 0.00 0.00 0.00 62 1004.3
20260903175532 73 106 0.9 2.6 0.00 0.00 0.00 64 1004.2
20260903175029 73 106 0.9 2.6 0.00 0.00 0.00 63 1004.2
20260903174529 73 106 0.0 2.6 0.00 0.00 0.00 64 1004.3
20260903174033 73 106 1.7 2.6 0.00 0.00 0.00 64 1004.4
20260903173530 73 110 0.0 2.6 0.00 0.00 0.00 65 1004.4
20260903173029 72 111 0.9 2.6 0.00 0.00 0.00 66 1004.6
20260903172029 72 108 0.0 5.2 0.00 0.00 0.00 66 1004.8
20260903171537 72 105 1.7 7.0 0.00 0.00 0.00 66 1004.8
20260903171031 72 5 2.6 7.0 0.00 0.00 0.00 65 1005.0
20260903170528 72 135 0.9 7.0 0.00 0.00 0.00 67 1005.0
20260903170029 71 136 1.7 7.0 0.00 0.00 0.00 67 1004.9
20260903165528 71 237 0.0 3.5 0.00 0.00 0.00 69 1004.8
20260903165027 70 237 1.7 3.5 0.00 0.00 0.00 68 1004.8
20260903164528 70 202 0.0 3.5 0.00 0.00 0.00 69 1004.9
20260903164028 70 202 0.0 3.5 0.00 0.00 0.00 70 1004.7
20260903163527 70 205 0.9 7.0 0.00 0.00 0.00 70 1004.7
20260903163027 69 240 2.6 7.8 0.00 0.00 0.00 71 1005.1
20260903162032 69 144 5.2 8.7 0.00 0.00 0.00 71 1004.6
20260903161532 69 135 3.5 7.0 0.00 0.00 0.00 71 1004.7
20260903161031 68 150 4.3 9.6 0.00 0.00 0.00 71 1004.7
20260903160532 69 132 4.3 10.4 0.00 0.00 0.00 70 1004.7
20260903160034 69 167 6.1 12.2 0.00 0.00 0.00 70 1005.1
20260903155534 69 194 7.8 12.2 0.00 0.00 0.00 70 1005.2
20260903155031 69 164 3.5 9.6 0.00 0.00 0.00 70 1005.1
20260903154538 69 202 6.1 15.6 0.00 0.00 0.00 70 1005.2
20260903154033 69 205 7.8 15.6 0.00 0.00 0.00 70 1005.5
20260903153529 69 233 8.7 13.0 0.00 0.00 0.00 72 1006.0
20260903153031 68 232 2.6 8.7 0.00 0.00 0.00 72 1005.5
20260903152029 67 236 4.3 7.0 0.00 0.00 0.00 74 1005.5
20260903151525 67 192 2.6 5.2 0.00 0.00 0.00 74 1005.4
20260903151025 67 232 0.9 4.3 0.00 0.00 0.00 74 1005.4
20260903150525 67 234 0.9 6.1 0.00 0.00 0.00 75 1005.5
20260903150027 67 234 3.5 6.1 0.00 0.00 0.00 75 1005.6
20260903145527 67 238 0.9 4.3 0.00 0.00 0.00 75 1005.5
20260903145029 67 239 2.6 4.3 0.00 0.00 0.00 75 1005.7
20260903144540 66 64 0.9 2.6 0.00 0.00 0.00 75 1005.5
20260903144025 66 53 0.0 2.6 0.00 0.00 0.00 76 1005.1
20260903143523 66 39 0.9 2.6 0.00 0.00 0.00 77 1004.7
20260903143038 65 16 0.0 2.6 0.00 0.00 0.00 77 1004.8
20260903142022 65 282 0.0 1.7 0.00 0.00 0.00 78 1005.1
20260903141523 65 282 0.0 1.7 0.00 0.00 0.00 78 1005.1
20260903141027 65 282 0.0 3.5 0.00 0.00 0.00 78 1005.3
20260903140522 64 281 0.9 3.5 0.00 0.00 0.00 78 1005.2
20260903140027 64 281 0.9 2.6 0.00 0.00 0.00 80 1005.2
20260903135520 64 292 0.9 2.6 0.00 0.00 0.00 80 1004.9
20260903135020 63 34 0.0 1.7 0.00 0.00 0.00 81 1004.3
20260903134519 63 38 0.0 0.9 0.00 0.00 0.00 81 1004.2
20260903134019 63 38 0.0 2.6 0.00 0.00 0.00 82 1004.1
20260903133524 63 37 0.9 2.6 0.00 0.00 0.00 82 1003.9
20260903133018 63 17 0.0 3.5 0.00 0.00 0.00 81 1003.9
20260903132618 63 11 1.7 6.1 0.00 0.00 0.00 81 1003.7
20260903132017 63 35 2.6 6.1 0.00 0.00 0.00 81 1003.6
20260903131517 63 51 2.6 6.1 0.00 0.00 0.00 80 1003.7
20260903131019 62 288 0.0 3.5 0.00 0.00 0.00 81 1004.2
20260903130516 62 286 1.7 3.5 0.00 0.00 0.00 81 1004.4
20260903130016 62 36 0.9 2.6 0.00 0.00 0.00 81 1003.8
20260903125516 62 36 0.0 1.7 0.00 0.00 0.00 81 1004.0
20260903125015 62 36 0.0 2.6 0.00 0.00 0.00 81 1004.0
20260903124514 62 36 0.0 2.6 0.00 0.00 0.00 81 1003.8
20260903124014 62 36 0.0 0.0 0.00 0.00 0.00 80 1003.9
20260903123514 62 36 0.0 0.0 0.00 0.00 0.00 81 1003.9
20260903123014 61 36 0.0 0.0 0.00 0.00 0.00 81 1003.7
20260903122017 62 36 0.0 0.0 0.00 0.00 0.00 80 1003.9
20260903121528 62 36 0.0 0.0 0.00 0.00 0.00 80 1003.8
20260903121015 62 36 0.0 0.0 0.00 0.00 0.00 80 1003.7
20260903120515 62 36 0.0 0.0 0.00 0.00 0.00 79 1003.8
20260903120030 62 36 0.0 2.6 0.00 0.00 0.00 79 1003.9
20260903115513 62 36 0.9 2.6 0.00 0.00 0.00 78 1003.7
20260903115016 63 36 0.0 2.6 0.00 0.00 0.00 78 1003.7
20260903114511 63 37 0.9 3.5 0.00 0.00 0.00 77 1003.7
20260903114010 63 37 0.9 3.5 0.00 0.00 0.00 77 1003.7
20260903113510 63 20 0.9 6.1 0.00 0.00 0.00 77 1003.6
20260903113018 63 32 1.7 4.3 0.00 0.00 0.00 77 1003.4
20260903112014 64 31 1.7 4.3 0.00 0.00 0.00 75 1003.6
20260903111511 64 16 0.9 3.5 0.00 0.00 0.00 74 1003.5
20260903111012 65 16 1.7 4.3 0.00 0.00 0.00 74 1003.5
20260903110510 65 15 1.7 5.2 0.00 0.00 0.00 74 1003.5
20260903110010 65 46 2.6 5.2 0.00 0.00 0.00 74 1003.6
20260903105507 65 9 2.6 7.8 0.00 0.00 0.00 73 1003.4
20260903105007 65 44 3.5 7.8 0.00 0.00 0.00 73 1003.3
20260903104507 65 42 2.6 7.8 0.00 0.00 0.00 73 1003.2
20260903104006 65 38 4.3 9.6 0.00 0.00 0.00 73 1003.2
20260903103507 64 48 4.3 7.8 0.00 0.00 0.00 73 1003.1
20260903103006 64 51 4.3 7.8 0.00 0.00 0.00 73 1003.1
20260903102002 64 26 2.6 7.0 0.00 0.00 0.00 73 1003.2
20260903101503 64 58 2.6 7.0 0.00 0.00 0.00 73 1002.8
20260903101001 64 34 2.6 7.0 0.00 0.00 0.00 73 1002.7
20260903100502 64 27 3.5 7.8 0.00 0.00 0.00 73 1002.7
20260903100003 64 58 4.3 7.8 0.00 0.00 0.00 73 1002.4
20260903095559 64 52 3.5 6.1 0.00 0.00 0.00 72 1002.6
20260903095101 65 32 2.6 5.2 0.00 0.00 0.00 71 1002.9
20260903094558 65 38 2.6 5.2 0.00 0.00 0.00 70 1003.0
20260903094056 65 46 1.7 5.2 0.00 0.00 0.00 69 1003.0
20260903093555 66 39 2.6 8.7 0.00 0.00 0.00 69 1002.7
20260903093053 66 19 2.6 8.7 0.00 0.00 0.00 68 1002.5
20260903092654 67 48 4.3 9.6 0.00 0.00 0.00 68 1002.5
20260903092055 67 36 4.3 8.7 0.00 0.00 0.00 67 1002.3
20260903091557 67 44 3.5 9.6 0.00 0.00 0.00 67 1002.5
20260903091053 68 36 4.3 12.2 0.00 0.00 0.00 66 1002.6
20260903090550 68 42 7.8 12.2 0.00 0.00 0.00 66 1002.5
20260903090050 69 42 5.2 9.6 0.00 0.00 0.00 67 1002.5
20260903090014 69 49 4.3 9.6 0.00 0.00 0.00 68 1002.4
20260903085549 69 65 4.3 11.3 0.00 0.00 0.00 70 1002.5
20260903085049 68 5 4.3 11.3 0.00 0.00 0.00 68 1002.4
20260903084551 68 26 3.5 7.0 0.00 0.00 0.00 67 1002.6
20260903084049 68 10 3.5 9.6 0.00 0.00 0.00 67 1002.8
20260903083548 68 11 5.2 11.3 0.00 0.00 0.00 67 1002.8
20260903083047 68 30 5.2 12.2 0.00 0.00 0.00 66 1002.8
20260903082647 69 10 1.7 11.3 0.00 0.00 0.00 67 1002.9
20260903082045 69 355 1.7 11.3 0.00 0.00 0.00 67 1003.0
20260903081545 69 5 5.2 11.3 0.00 0.00 0.00 67 1003.0
20260903081042 70 302 1.7 7.8 0.00 0.00 0.00 63 1003.1
20260903080544 72 15 1.7 6.1 0.00 0.00 0.00 62 1003.1
20260903080041 73 42 0.9 2.6 0.00 0.00 0.00 71 1003.3
20260903075542 73 26 0.0 2.6 0.00 0.00 0.00 71 1003.3
20260903075043 73 26 0.0 3.5 0.00 0.00 0.00 70 1003.3
20260903074541 73 22 1.7 3.5 0.00 0.00 0.00 70 1003.2
20260903074040 73 40 0.0 4.3 0.00 0.00 0.00 69 1003.4
20260903073542 74 38 1.7 4.3 0.00 0.00 0.00 69 1003.4
20260903073039 74 316 0.0 4.3 0.00 0.00 0.00 70 1003.4
20260903072638 73 311 3.5 7.8 0.00 0.00 0.00 71 1003.2
20260903072041 73 46 4.3 7.8 0.00 0.00 0.00 71 1003.1
20260903071552 72 24 0.9 5.2 0.00 0.00 0.00 71 1003.1
20260903071038 72 355 0.9 6.1 0.00 0.00 0.00 71 1003.3
20260903070537 72 286 1.7 3.5 0.00 0.00 0.00 71 1003.4
20260903070036 72 267 0.0 2.6 0.00 0.00 0.00 71 1002.9
20260903065538 72 267 0.0 3.5 0.00 0.00 0.00 70 1002.8
20260903065036 73 264 0.9 7.8 0.00 0.00 0.00 70 1003.0
20260903064537 73 262 1.7 10.4 0.00 0.00 0.00 70 1003.0
20260903064033 73 194 5.2 13.0 0.00 0.00 0.00 70 1002.8
20260903063532 73 178 4.3 13.9 0.00 0.00 0.00 69 1002.2
20260903063032 73 121 7.0 15.6 0.00 0.00 0.00 69 1001.9
20260903062632 73 124 9.6 13.0 0.00 0.00 0.00 69 1001.7
20260903062034 73 132 7.8 13.0 0.00 0.00 0.00 69 1001.8
20260903061534 74 132 9.6 13.9 0.00 0.00 0.00 69 1001.8
20260903061036 74 165 8.7 13.9 0.00 0.00 0.00 69 1001.8
20260903060534 74 139 6.1 11.3 0.00 0.00 0.00 69 1001.9
20260903060033 74 122 6.1 12.2 0.00 0.00 0.00 68 1002.0
20260903055533 73 185 4.3 10.4 0.00 0.00 0.00 68 1002.0
20260903055033 73 188 2.6 10.4 0.00 0.00 0.00 68 1002.2
20260903054535 74 182 3.5 13.9 0.00 0.00 0.00 67 1002.1
20260903054036 74 117 6.1 16.5 0.00 0.00 0.00 67 1001.7
20260903053534 74 115 8.7 16.5 0.00 0.00 0.00 67 1001.2
20260903053035 74 89 11.3 16.5 0.00 0.00 0.00 67 1001.5
20260903052632 74 134 9.6 16.5 0.00 0.00 0.00 67 1001.6
20260903052034 74 136 8.7 14.8 0.00 0.00 0.00 67 1001.5
20260903051552 74 123 7.8 14.8 0.00 0.00 0.00 67 1001.5
20260903051033 74 138 8.7 13.9 0.00 0.00 0.00 67 1001.3
20260903050537 74 107 7.0 12.2 0.00 0.00 0.00 67 1001.2
20260903050033 74 111 7.0 12.2 0.00 0.00 0.00 67 1001.4
20260903045532 74 117 5.2 11.3 0.00 0.00 0.00 67 1001.6
20260903045031 74 102 5.2 11.3 0.00 0.00 0.00 66 1002.0
20260903044539 74 106 4.3 10.4 0.00 0.00 0.00 66 1002.0
20260903044030 74 136 4.3 10.4 0.00 0.00 0.00 66 1002.7
20260903043532 75 94 5.2 10.4 0.00 0.00 0.00 66 1002.7
20260903043107 75 125 4.3 9.6 0.00 0.00 0.00 66 1003.0